Regional Weather Roundup
Issued by NWS

Home | Current Version | Previous Version | Graphics & Text | Print | Product List | Glossary On
Versions: 1 2 3 4 5 6 7 8 9 10 11 12 13 14 15 16 17 18 19 20 21 22 23 24 25 26 27 28 29 30 31 32 33 34 35 36 37 38 39 40 41 42 43 44 45 46 47 48 49 50
000
ASUS45 KTFX 210819
RWRMT
MONTANA HOURLY WEATHER ROUNDUP
NATIONAL WEATHER SERVICE GREAT FALLS MT
119 AM MST SUN DEC 21 2014

NOTE: "FAIR" INDICATES FEW OR NO CLOUDS BELOW 12000 FEET WITH NO
SIGNIFICANT WEATHER AND/OR OBSTRUCTIONS TO VISIBILITY.

* THESE STATIONS ARE NOT UNDER NWS QUALITY CONTROL. THEY DO NOT
   REPORT WEATHER SUCH AS PRECIPITATION OR FOG.

MTZ001>007-043-210900-
WEST OF THE DIVIDE
CITY           SKY/WX    TMP DP  RH WIND       PRES   REMARKS
KALISPELL      LGT RAIN  36  34  92 S13       29.50F WCI  27
MISSOULA       FRZ RAIN  30  30 100 VRB3      29.60F
BUTTE          CLOUDY    34  25  70 CALM      29.63F
MULLAN PASS    SNOW      30  27  89 VRB7      29.48F VSB 1/2  WCI  23
* ESSEX        N/A       31  30  96 NW1        N/A
* EUREKA APT   CLOUDY    36  34  92 S16G22    29.47F WCI  26
* HAMILTON APT CLOUDY    41  34  76 S18       29.60F
* LIBBY APT    CLOUDY   N/A N/A N/A NW3        N/A
* LINCOLN      N/A       32  30  92 W5         N/A   WCI  27
* LOOKOUT PASS N/A       32  32 100 S2G12      N/A
* POLSON       N/A       35  35 100 S2         N/A
* RONAN APT    CLOUDY    36  34  92 N/A        N/A
* SEELEY LAKE  N/A       28  27  96 N/A        N/A
* THOMP F APT  MOCLDY    29  28  96 S10G15     N/A   WCI  20
* YAAK HILL    N/A       36  33  89 NW1        N/A
$$

MTZ008-052>055-210900-
SOUTHWEST MONTANA
CITY           SKY/WX    TMP DP  RH WIND       PRES   REMARKS
BOZEMAN        CLOUDY    34  27  76 SE6       29.62F WCI  29
DILLON         CLOUDY    34  27  76 SW6       29.68F WCI  29
* W YELLOWSTON CLOUDY    29  27  92 SW6G14     N/A   WCI  23
* THREE FORKS  CLOUDY    43  43 100 S17G30     N/A
* BOULDER HILL N/A       33  21  61 S15        N/A   WCI  23
* MONIDA PASS  N/A       28  28 100 S19        N/A   WCI  15
* RAYNOLDS PAS N/A       30  13  49 SE15G26    N/A   WCI  19
* WHITEHALL    N/A       41  26  55 SW15G23    N/A
* WISE RIVER   N/A       31  29  92 NW9G14     N/A   WCI  23
$$

MTZ009>010-012-014-046-048-049-054-210900-
EAST SLOPES AND CENTRAL MONTANA
CITY           SKY/WX    TMP DP  RH WIND       PRES   REMARKS
CUT BANK       MOCLDY    30  27  89 SE14      29.37F WCI  19
GREAT FALLS    CLOUDY    43  28  56 SW14G22   29.46F
HELENA         CLOUDY    34  27  76 CALM      29.55F
MALMSTROM AFB  CLOUDY    41  28  60 SW15      29.48F
* CONRAD       CLOUDY    36  30  79 SE10G16    N/A   WCI  29
* DEARBORN     N/A       45  29  54 S20G28     N/A
* EAST GLACIER N/A       37  27  67 W17G23     N/A   WCI  27
* MONARCH      N/A       38  19  46 S34        N/A   WCI  25
* PENDROY      N/A       34  28  79 S1G6       N/A
* ROGERS PASS  N/A       32  29  89 SE19G32    N/A   WCI  20
* SWEET GRASS  N/A       25  23  92 S16        N/A   WCI  12
* WHITE SULPH  N/A       36  28  73 S12G21     N/A   WCI  28
$$

MTZ011-013-016-021-035-040-045-047-050-051-210900-
NORTH CENTRAL MONTANA
CITY           SKY/WX    TMP DP  RH WIND       PRES   REMARKS
HAVRE          MOCLDY    27  21  78 NE7       29.46F WCI  19
LEWISTOWN      CLOUDY    41  27  58 SW22G30   29.51F
* N BAR RANCH  CLOUDY    37  21  52 CALM      29.55F
* CHINOOK      PTCLDY    21  19  92 E6        29.48F WCI  13
* CHESTER      N/A       20  16  84 NE1        N/A
* DENTON       N/A       37  25  62 S10        N/A   WCI  30
* GEYSER       N/A       34  21  59 N/A        N/A
* JUDITH GAP   N/A       32  24  72 SE16       N/A   WCI  21
* LOMA         N/A       29  24  82 NE10       N/A   WCI  20
$$

MTZ017>020-022>027-061-062-210900-
NORTHEAST MONTANA
CITY           SKY/WX    TMP DP  RH WIND       PRES   REMARKS
GLASGOW        CLEAR     25  19  78 E13       29.57F WCI  13
GLENDIVE       CLEAR     23  19  85 SW8       29.64F WCI  14
JORDAN         CLEAR     19  16  88 CALM      29.59F
SIDNEY         CLEAR     19  18  96 S6        29.66F WCI  11
WOLF POINT     CLEAR     19  16  88 NE6       29.62F WCI  11
* BEAVER HILL  N/A       34  24  67 S12        N/A   WCI  25
* CIRCLE       N/A       28  23  81 N/A        N/A
* LINDSAY DVD  N/A       25  20  81 S4         N/A
* PLENTYWOOD A CLEAR     23  19  85 E6        29.60F WCI  16
* POPLAR APT   CLEAR     23  19  85 CALM      29.61F
* SACO         N/A       20  17  88 E2         N/A
$$

MTZ028>042-056>058-210900-
SOUTHCENTRAL AND SOUTHEAST MONTANA
CITY           SKY/WX    TMP DP  RH WIND       PRES   REMARKS
BAKER          CLEAR     23  21  92 E6        29.67F WCI  16
BILLINGS       CLOUDY    34  21  59 SW15      29.61F WCI  24
LIVINGSTON     CLOUDY    45  25  45 SW25G36   29.58F
MILES CITY     PTCLDY    27  21  78 SE10      29.63F WCI  18
* FORSYTH APT  PTCLDY    27  21  78 E3        29.61F
* LAUREL APT   CLOUDY    34  18  52 SW5        N/A   WCI  29
* ROUNDUP APT  CLOUDY    36  21  54 SW5        N/A   WCI  32
* ALZADA       N/A       28  22  78 N/A        N/A
* HYSHAM       N/A       35  18  50 W4G9       N/A
* LAME DEER    N/A       32  22  67 SW6        N/A   WCI  26
* REED POINT   N/A       26  24  92 E6         N/A   WCI  19
* ROSCOE HILL  N/A       42  13  31 S17G35     N/A
$$

REGIONAL REPORTS...DAKOTAS
CITY           SKY/WX    TMP DP  RH WIND       PRES   REMARKS
WILLISTON      CLEAR     18  16  92 CALM      29.65F
DICKINSON      FAIR      27  19  72 S3        29.66F
BEACH          CLEAR     25  23  92 S6        29.67F WCI  18
CROSBY         CLEAR     23  23 100 S10       29.63F WCI  13
TIOGA          CLEAR     18  18 100 CALM      29.68F
WATFORD CITY   CLEAR     19  16  88 CALM      29.64F
BISMARCK       CLEAR     16  12  84 NE3       29.75F
GRAND FORKS    CLOUDY    30  28  92 S16G22    29.80F WCI  19
FARGO          FOG       32  28  85 S12       29.84F WCI  23
BUFFALO SD     PTCLDY    28  21  75 E5        29.63F WCI  22
RAPID CITY     CLEAR     28  23  81 S5        29.71F WCI  22
$$

REGIONAL REPORTS...WYOMING/IDAHO/WASHINGTON
CITY           SKY/WX    TMP DP  RH WIND       PRES   REMARKS
GILLETTE       PTCLDY    34  19  54 SW18      29.68F WCI  23
SHERIDAN       MOCLDY    28  18  66 CALM      29.65F
CODY           MOCLDY    39  27  62 S6        29.65F WCI  35
YELLOWSTONE LA CLOUDY    27  25  92 CALM      29.79F
SALMON         CLOUDY    34  30  85 N3        29.73F
MULLAN PASS    SNOW      30  27  89 VRB7      29.48S VSB 1/2  WCI  23
SAND POINT     RAIN      34  34 100 SW3       29.50F VSB 2 1/2
SPOKANE        LGT RAIN  46  45  96 SW24G31   29.45F
$$

REGIONAL REPORTS...ALBERTA
CITY           SKY/WX    TMP DP  RH WIND       PRES   REMARKS
CALGARY        MOCLDY    28  21  75 S6        29.23F WCI  21
LETHBRIDGE     MOCLDY    32  27  82 S9G21     29.32F WCI  24
MEDICINE HAT   PTCLDY    25  21  85 SW5       29.38F WCI  19
EDMONTON       MOCLDY    21  16  81 SE10      29.26F WCI  10
WATERTON GATE  N/A       37  30  76 SW28G40    N/A   WCI  25
CARDSTON       N/A       39  28  65 S7         N/A   WCI  34
MILK RIVER     N/A       30  25  82 S10        N/A   WCI  21
$$

REGIONAL REPORTS...SASKATCHEWAN
CITY           SKY/WX    TMP DP  RH WIND       PRES   REMARKS
SWIFT CURRENT  CLEAR     25  21  85 S15       29.47F WCI  13
REGINA         FOG       14  14 100 SE8       29.58F VSB 1 1/2 WCI   3
VAL MARIE      N/A       12  10  92 SW2        N/A
ASSINIBOIA     N/A       25  19  78 S6         N/A   WCI  18
CORONACH       N/A       18  16  92 SE5        N/A   WCI  11

$$



USA.gov is the U.S. government's official web portal to all federal, state and local government web resources and services.